[[{"header":{"parameterUnit":"m.s-1","parameterCategory":1,"la1":30.2991,"la2":30.254,"lo1":-89.0895,"lo2":-89.0444,"dy":0.0017,"dx":0.0017,"nx":28,"ny":28,"refTime":"2025-06-22T03:00:00:Z","depth":0,"parameterNumber":2,"parameterNumberName":"U-component_of_WINDS"},"data":[0,0,0,0,0,0,0,0,0,0,0,0,0,0,0,0,0,0,0,0,0,0,0,0,0,0,0,0,0,0,0,0,0,0,0,0,0,0,0,0,0,0,0,0,0,0,0,0,0,0,0,0,0,0,0,0,0,0,-3.0072,-3.0072,0,-3.0059,-3.0059,-3.0058,-2.9988,-2.9986,-2.9985,-2.9983,-2.997,-2.9971,-2.9972,0,0,0,0,0,0,0,0,0,0,0,0,0,-3.0039,-3.004,-3.0072,-3.0072,-3.0072,-3.0059,-3.0059,-3.0058,-2.9988,-2.9986,-2.9984,-2.9982,-2.9969,-2.9971,-2.9972,0,0,0,0,0,0,0,0,0,0,0,0,0,-3.0042,-3.004,-3.0072,-3.0035,-3.0032,-3.0059,-3.0059,-3.0058,-2.9989,-2.9986,-2.9984,-2.9981,-2.9969,-2.9971,-2.9973,-3.0034,0,0,-2.9978,-2.9979,0,0,0,0,0,0,0,0,-3.0042,-3.0043,-3.0041,-3.0038,-3.0034,-3.0022,-3.0042,-3.005,-2.9989,-3.0005,-2.9983,-2.998,-2.9989,-2.9989,-2.9992,-3.0033,-3.0033,-2.9978,-2.9979,-2.998,-2.9981,0,0,0,0,0,0,0,-3.0042,-3.0044,-3.0067,-3.0041,-3.0037,-3.002,-3.0018,-3.0043,-3.0012,-3.0004,-2.9999,-2.9998,-2.9987,-2.9991,-2.9992,-3.0032,-2.9978,-2.998,-2.9981,-2.9982,-3.0123,-3.0126,0,0,0,0,0,0,-3.0047,-3.0044,-3.0067,-3.0066,-3.0032,-3.0023,-3.002,-3.0029,-3.0011,-3.0006,-3.0,-2.9995,-2.9989,-2.999,-2.9991,-3.0061,-2.998,-2.9982,-2.9983,-3.0121,-3.0124,-3.0127,0,0,0,0,0,0,-3.0046,-3.0049,-3.0068,-3.0054,-3.0055,-3.0026,-3.0036,-3.003,-3.0033,-3.0008,-3.0002,-3.001,-2.9987,-2.9988,-3.0024,-3.006,-2.9983,-2.9984,-3.0117,-3.0122,-3.0125,-3.0203,0,0,0,0,0,0,-3.0046,-3.005,-3.0072,-3.0055,-3.0056,-3.0101,-3.0039,-3.0031,-3.0037,-3.003,-3.0016,-3.0011,-2.9985,-3.0021,-3.0025,-3.0061,-2.9986,-3.0114,-3.0119,-3.0124,-3.0197,-3.0209,-3.022,0,0,0,0,0,-3.0045,-3.0095,-3.0074,-3.0077,-3.0084,-3.0103,-3.0104,-3.0073,-3.004,-3.0063,-3.0047,-3.0011,-3.0056,-3.0026,-3.003,-3.0066,-3.0112,-3.0118,-3.0124,-3.0192,-3.0207,-3.0219,0,0,0,0,0,0,-3.0117,-3.0092,-3.0068,-3.0114,-3.0112,-3.0091,-3.0119,-3.0089,-3.0096,-3.0089,-3.005,-3.0048,-3.0089,-3.0081,-3.0048,-3.0125,-3.0078,-3.0085,-3.0128,-3.0142,-3.0153,-3.0154,-2.9987,0,0,0,0,0,-3.0139,-3.0157,-3.0133,-3.0176,-3.0176,-3.0148,-3.0155,-3.0132,-3.0127,-3.0126,-3.0112,-3.011,-3.0123,-3.0132,-3.0143,-3.0196,-3.0192,-3.0223,-3.0235,-3.0244,-3.025,-3.0278,-3.0292,-3.0147,-3.0146,-3.0146,0,0,-3.0183,-3.0172,-3.0185,-3.0191,-3.0186,-3.0205,-3.0147,-3.017,-3.0185,-3.0129,-3.0162,-3.0152,-3.0146,-3.0191,-3.021,-3.0186,-3.029,-3.0252,-3.0259,-3.0261,-3.0286,-3.03,-3.0312,-3.0151,-3.015,-3.0149,0,0,-3.0274,-3.0267,-3.0302,-3.0298,-3.0292,-3.0273,-3.0281,-3.0266,-3.0257,-3.0289,-3.0248,-3.0265,-3.0288,-3.0286,-3.0288,-3.0379,-3.0347,-3.0384,-3.0442,-3.047,-3.0481,-3.0491,-3.0524,-3.0536,-3.039,-3.0391,-3.0391,0,-3.033,-3.0358,-3.0324,-3.035,-3.0354,-3.0305,-3.034,-3.0338,-3.0335,-3.0339,-3.0312,-3.0341,-3.0334,-3.0377,-3.04,-3.0403,-3.0412,-3.0385,-3.0482,-3.0492,-3.0501,-3.0531,-3.0544,-3.0395,-3.0395,-3.0394,-3.0394,0,-3.0427,-3.0447,-3.0476,-3.0474,-3.0482,-3.0512,-3.0484,-3.0495,-3.0471,-3.0456,-3.0489,-3.0479,-3.0487,-3.0496,-3.0473,-3.0536,-3.0521,-3.0489,-3.0441,-3.052,-3.0548,-3.0559,-3.0401,-3.04,-3.0399,-3.0397,0,0,-3.0562,-3.0542,-3.0553,-3.0552,-3.0542,-3.0557,-3.0585,-3.0593,-3.0604,-3.0604,-3.0627,-3.0648,-3.0618,-3.0621,-3.0597,-3.0622,-3.0695,-3.0586,-3.0585,-3.0607,-3.0764,-3.0788,-3.0802,-3.0674,-3.0676,-3.0677,-3.0765,0,-3.0649,-3.0696,-3.0667,-3.0719,-3.0737,-3.0691,-3.0716,-3.0713,-3.0699,-3.0713,-3.0698,-3.0714,-3.0673,-3.0674,-3.0696,-3.0681,-3.0726,-3.0675,-3.0695,-3.0696,-3.0697,-3.0817,-3.0842,-3.0925,-3.0775,-3.0777,-3.0778,0,-3.0756,-3.076,-3.0814,-3.0801,-3.0807,-3.083,-3.0835,-3.0849,-3.0844,-3.0832,-3.0836,-3.0806,-3.0834,-3.0787,-3.0824,-3.079,-3.0797,-3.0791,-3.0794,-3.0794,-3.0742,-3.082,-3.095,-3.0963,-3.0795,-3.0794,-3.0793,0,-3.0849,-3.0869,-3.0903,-3.0904,-3.0889,-3.0906,-3.0901,-3.0894,-3.09,-3.0905,-3.0909,-3.0917,-3.0921,-3.0929,-3.0902,-3.0871,-3.0944,-3.0894,-3.0935,-3.0935,-3.0951,-3.0951,-3.1084,-3.0957,-3.0957,-3.0957,-3.0956,0,-3.0948,-3.0983,-3.0945,-3.0966,-3.1004,-3.0971,-3.1009,-3.0999,-3.0993,-3.1012,-3.0974,-3.0992,-3.0957,-3.0972,-3.0952,-3.0986,-3.0988,-3.098,-3.0974,-3.0983,-3.0984,-3.0986,-3.098,-3.096,-3.0959,-3.0958,-3.0958,0,-3.1058,-3.1034,-3.1069,-3.1052,-3.1049,-3.1077,-3.1063,-3.1082,-3.1066,-3.1091,-3.1095,-3.107,-3.1086,-3.106,-3.1073,-3.106,-3.1107,-3.1093,-3.1109,-3.1104,-3.1146,-3.1142,-3.1285,-3.1302,-3.1165,-3.1166,-3.1167,0,-3.1122,-3.1148,-3.1134,-3.1144,-3.1141,-3.1157,-3.1164,-3.1133,-3.1141,-3.1138,-3.1158,-3.1171,-3.1179,-3.1207,-3.119,-3.12,-3.1185,-3.1235,-3.1186,-3.1195,-3.1186,-3.1184,-3.1187,-3.1245,-3.1246,-3.1248,-3.1249,0,-3.1239,-3.1227,-3.1238,-3.1245,-3.1254,-3.1259,-3.126,-3.127,-3.1237,-3.1249,-3.1265,-3.1272,-3.1285,-3.1298,-3.1304,-3.1299,-3.1269,-3.1264,-3.1274,-3.1283,-3.1291,-3.1287,-3.1135,-3.1261,-3.126,-3.1259,-3.1258,-3.1258,-3.1328,-3.1349,-3.1342,-3.1356,-3.1354,-3.1357,-3.1374,-3.1361,-3.1373,-3.1381,-3.1363,-3.1383,-3.1378,-3.1383,-3.1381,-3.1397,-3.1375,-3.139,-3.1393,-3.1397,-3.1403,-3.1289,-3.1398,-3.1398,-3.1398,-3.1397,-3.1397,0,-3.1443,-3.1437,-3.145,-3.1453,-3.1464,-3.1435,-3.1436,-3.1447,-3.1465,-3.1463,-3.1473,-3.1491,-3.1504,-3.1489,-3.1499,-3.1515,-3.1501,-3.1518,-3.1516,-3.1516,-3.1423,-3.1413,-3.1529,-3.1529,-3.1529,-3.1529,-3.1529,-3.1529,-3.1504,-3.1537,-3.1524,-3.1556,-3.155,-3.157,-3.1572,-3.1575,-3.1573,-3.1595,-3.1606,-3.1596,-3.1589,-3.1598,-3.1609,-3.1604,-3.161,-3.1632,-3.1622,-3.1535,-3.1522,-3.151,-3.1501,-3.1633,-3.1634,-3.1714,-3.1715,-3.1715]},{"header":{"parameterUnit":"m.s-1","parameterCategory":1,"la1":30.2991,"la2":30.254,"lo1":-89.0895,"lo2":-89.0444,"dy":0.0017,"dx":0.0017,"nx":28,"ny":28,"refTime":"2025-06-22T03:00:00:Z","depth":0,"parameterNumber":3,"parameterNumberName":"V-component_of_WINDS"},"data":[0,0,0,0,0,0,0,0,0,0,0,0,0,0,0,0,0,0,0,0,0,0,0,0,0,0,0,0,0,0,0,0,0,0,0,0,0,0,0,0,0,0,0,0,0,0,0,0,0,0,0,0,0,0,0,0,0,0,-0.9523,-0.9524,0,-0.9584,-0.9584,-0.9585,-0.9594,-0.9593,-0.9592,-0.9592,-0.9655,-0.9657,-0.9659,0,0,0,0,0,0,0,0,0,0,0,0,0,-0.9413,-0.9415,-0.9523,-0.9524,-0.9524,-0.9584,-0.9584,-0.9585,-0.9594,-0.9593,-0.9592,-0.9592,-0.9654,-0.9657,-0.9659,0,0,0,0,0,0,0,0,0,0,0,0,0,-0.9466,-0.9416,-0.9523,-0.9536,-0.9537,-0.9583,-0.9584,-0.9585,-0.9594,-0.9593,-0.9592,-0.9591,-0.9653,-0.9657,-0.966,-0.9697,0,0,-0.967,-0.9671,0,0,0,0,0,0,0,0,-0.9463,-0.947,-0.9533,-0.9535,-0.9537,-0.958,-0.9569,-0.9623,-0.9594,-0.9572,-0.9592,-0.9591,-0.9631,-0.9636,-0.9649,-0.97,-0.9703,-0.967,-0.9672,-0.9674,-0.9675,0,0,0,0,0,0,0,-0.946,-0.9468,-0.9547,-0.9534,-0.9536,-0.9538,-0.9545,-0.9579,-0.9606,-0.9574,-0.9575,-0.9582,-0.9632,-0.9646,-0.9651,-0.9704,-0.967,-0.9673,-0.9675,-0.9676,-0.9787,-0.9788,0,0,0,0,0,0,-0.9453,-0.9465,-0.9545,-0.9549,-0.9497,-0.9541,-0.9548,-0.9567,-0.9605,-0.961,-0.9583,-0.9582,-0.9641,-0.9647,-0.9653,-0.9699,-0.9674,-0.9677,-0.9679,-0.9786,-0.9787,-0.9788,0,0,0,0,0,0,-0.9451,-0.9461,-0.9543,-0.9507,-0.9517,-0.9544,-0.9565,-0.9569,-0.9583,-0.9612,-0.9616,-0.9593,-0.964,-0.9648,-0.9686,-0.9701,-0.9678,-0.9681,-0.9785,-0.9786,-0.9788,-0.9791,0,0,0,0,0,0,-0.9448,-0.946,-0.9475,-0.9507,-0.9519,-0.9575,-0.9566,-0.9571,-0.9589,-0.9589,-0.9622,-0.9627,-0.964,-0.9681,-0.9689,-0.9705,-0.9684,-0.9784,-0.9786,-0.9787,-0.9789,-0.9792,-0.9794,0,0,0,0,0,-0.9444,-0.9473,-0.9475,-0.9485,-0.9538,-0.9576,-0.9583,-0.9597,-0.959,-0.9605,-0.9623,-0.9626,-0.9698,-0.9685,-0.9694,-0.9711,-0.9783,-0.9785,-0.9787,-0.9788,-0.9791,-0.9794,0,0,0,0,0,0,-0.9443,-0.9478,-0.948,-0.9521,-0.9545,-0.9577,-0.9596,-0.96,-0.9627,-0.9626,-0.9643,-0.965,-0.9687,-0.9703,-0.9687,-0.9749,-0.974,-0.9744,-0.9737,-0.9741,-0.9743,-0.9739,-0.9687,0,0,0,0,0,-0.9447,-0.9474,-0.9504,-0.9537,-0.9548,-0.957,-0.9587,-0.9596,-0.9622,-0.9632,-0.9653,-0.9678,-0.9705,-0.9724,-0.9751,-0.9791,-0.9798,-0.9807,-0.981,-0.9812,-0.9815,-0.9836,-0.9841,-0.9795,-0.9795,-0.9795,0,0,-0.9456,-0.9479,-0.9495,-0.9537,-0.9557,-0.9584,-0.9579,-0.9609,-0.9629,-0.9636,-0.9673,-0.9689,-0.9718,-0.9756,-0.9774,-0.977,-0.9829,-0.9815,-0.9816,-0.9818,-0.9839,-0.9843,-0.9847,-0.9797,-0.9796,-0.9796,0,0,-0.9488,-0.9508,-0.9537,-0.9556,-0.9586,-0.96,-0.9607,-0.9637,-0.9648,-0.9685,-0.9691,-0.9715,-0.9763,-0.9783,-0.9799,-0.9836,-0.9839,-0.9844,-0.9858,-0.9878,-0.9881,-0.9885,-0.9897,-0.9902,-0.9848,-0.9848,-0.9848,0,-0.9496,-0.9538,-0.9552,-0.9581,-0.9599,-0.9606,-0.9635,-0.9653,-0.969,-0.9702,-0.9697,-0.9757,-0.9777,-0.9819,-0.9828,-0.9841,-0.9849,-0.9841,-0.988,-0.9883,-0.9886,-0.9899,-0.9903,-0.9848,-0.9848,-0.9848,-0.9848,0,-0.9546,-0.9575,-0.9595,-0.963,-0.965,-0.9679,-0.9697,-0.9715,-0.9721,-0.9736,-0.9772,-0.9796,-0.9828,-0.9838,-0.9846,-0.9882,-0.9878,-0.9876,-0.9868,-0.9891,-0.9903,-0.9907,-0.9849,-0.9848,-0.9848,-0.9848,0,0,-0.958,-0.9621,-0.9628,-0.9643,-0.9675,-0.9698,-0.9726,-0.9757,-0.9772,-0.9797,-0.9821,-0.986,-0.9858,-0.9877,-0.9886,-0.9904,-0.993,-0.99,-0.99,-0.9904,-0.997,-0.9972,-0.9977,-0.9932,-0.9933,-0.9934,-0.9968,0,-0.9615,-0.9667,-0.9679,-0.9723,-0.975,-0.9756,-0.978,-0.9802,-0.9816,-0.984,-0.9855,-0.9882,-0.9878,-0.9889,-0.9906,-0.9923,-0.9944,-0.9921,-0.9955,-0.9956,-0.9948,-0.9983,-0.9985,-1.0016,-0.9973,-0.9973,-0.9974,0,-0.9664,-0.9688,-0.9735,-0.9762,-0.9773,-0.9796,-0.9824,-0.9847,-0.9871,-0.988,-0.9899,-0.9906,-0.9936,-0.9925,-0.9965,-0.9949,-0.9963,-0.9973,-0.9975,-0.9979,-0.9967,-0.9988,-1.0027,-1.0031,-0.9981,-0.9981,-0.998,0,-0.9683,-0.9728,-0.9762,-0.9774,-0.9807,-0.9822,-0.9837,-0.986,-0.9877,-0.9902,-0.9913,-0.994,-0.9956,-0.9976,-0.999,-0.9981,-1.0029,-1.002,-1.0037,-1.0036,-1.0047,-1.0047,-1.0089,-1.0056,-1.0056,-1.0056,-1.0056,0,-0.9721,-0.9749,-0.9771,-0.9791,-0.9822,-0.9836,-0.9866,-0.9881,-0.9901,-0.9924,-0.9931,-0.9952,-0.9969,-0.9993,-1.0003,-1.0035,-1.0042,-1.0049,-1.0052,-1.0049,-1.0048,-1.0059,-1.0057,-1.0057,-1.0057,-1.0057,-1.0056,0,-0.9749,-0.9764,-0.9801,-0.9828,-0.9836,-0.9857,-0.9881,-0.99,-0.9913,-0.9942,-0.995,-0.997,-0.9998,-1.0013,-1.0048,-1.0055,-1.009,-1.0092,-1.0082,-1.0083,-1.0099,-1.0097,-1.015,-1.0157,-1.012,-1.012,-1.0121,0,-0.9773,-0.9794,-0.9823,-0.9839,-0.9853,-0.9879,-0.9895,-0.9909,-0.9926,-0.9955,-0.9971,-0.9999,-1.0022,-1.0066,-1.0084,-1.011,-1.0112,-1.0129,-1.0116,-1.0112,-1.0112,-1.0111,-1.0112,-1.0131,-1.0131,-1.0132,-1.0132,0,-0.9812,-0.9818,-0.9843,-0.9869,-0.9889,-0.9911,-0.9932,-0.9944,-0.9961,-0.998,-1.0008,-1.0026,-1.0061,-1.0089,-1.0116,-1.013,-1.0134,-1.0135,-1.0141,-1.0138,-1.0131,-1.0135,-1.0088,-1.0134,-1.0134,-1.0134,-1.0134,-1.0134,-0.9839,-0.9858,-0.9881,-0.9907,-0.9924,-0.9944,-0.9963,-0.9978,-1.0001,-1.0031,-1.0037,-1.0066,-1.0089,-1.0126,-1.0141,-1.0163,-1.016,-1.0168,-1.017,-1.0172,-1.0172,-1.0127,-1.0169,-1.0168,-1.0168,-1.0168,-1.0168,0,-0.9879,-0.9893,-0.9917,-0.9947,-0.9967,-0.9968,-0.9991,-1.0008,-1.0033,-1.0054,-1.0076,-1.0107,-1.0134,-1.0152,-1.0179,-1.0193,-1.0196,-1.02,-1.0199,-1.0202,-1.0174,-1.0166,-1.0198,-1.0198,-1.0198,-1.0198,-1.0198,-1.0198,-0.9902,-0.9934,-0.9942,-0.9982,-0.9997,-1.0025,-1.0038,-1.0056,-1.0072,-1.0107,-1.0128,-1.014,-1.016,-1.0187,-1.0211,-1.0216,-1.0225,-1.0229,-1.0234,-1.0207,-1.0204,-1.0201,-1.0194,-1.0231,-1.0231,-1.026,-1.0261,-1.0261]}]]